This demonstration page uses our WeatherBlox Daily Observations layout. Learn more.

36.17497, -115.13722

Hourly Observations for June 3, 2018

Temp ( °F °C ) Dew Point ( °F °C ) Humidity (%) Winds ( mph kmh ) Pressure ( in mb ) Visibility ( mi km ) Precip ( " mm )
12:53 am 00:53 Clear 80 26.7 26 -3.3 14 14 NNW 8 13 29.8 1009 10 16.09344 0 0
1:53 am 01:53 Clear 84 28.9 20 -6.7 9 9 N 7 11 29.8 1009 10 16.09344 0 0
2:53 am 02:53 Clear 83 28.3 19 -7.2 9 9 Calm 29.83 1010 10 16.09344 0 0
3:53 am 03:53 Clear 78 25.6 25 -3.9 14 14 W 5 7 29.83 1010 10 16.09344 0 0
4:53 am 04:53 Clear 77 25 26 -3.3 15 15 NW 6 9 29.83 1010 10 16.09344 0 0
5:53 am 05:53 Sunny 75 23.9 26 -3.3 16 16 Calm 29.85 1011 10 16.09344 0 0
6:53 am 06:53 Sunny 79 26.1 26 -3.3 14 14 Calm 29.88 1012 10 16.09344 0 0
7:53 am 07:53 Sunny 84 28.9 21 -6.1 10 10 NNW 5 7 29.88 1012 10 16.09344 0 0
8:53 am 08:53 Sunny 87 30.6 20 -6.7 8 8 Calm 29.88 1012 10 16.09344 0 0
9:53 am 09:53 Sunny 90 32.2 19 -7.2 7 7 Calm 29.88 1012 10 16.09344 0 0
10:53 am 10:53 Sunny 94 34.4 19 -7.2 6 6 N 6 9 29.88 1012 10 16.09344 0 0
11:53 am 11:53 Sunny 95 35 18 -7.8 6 6 N 3 6 29.85 1011 10 16.09344 0 0
12:53 pm 12:53 Sunny 98 36.7 19 -7.2 6 6 N 3 6 29.83 1010 10 16.09344 0 0
1:53 pm 13:53 Sunny 100 37.8 17 -8.3 5 5 S 7 11 29.8 1009 10 16.09344 0 0
2:53 pm 14:53 Sunny 101 38.3 14 -10 4 4 undefined N/A 29.77 1008 10 16.09344 0 0
3:53 pm 15:53 Sunny 102 38.9 11 -11.7 3 3 N 3 6 29.77 1008 10 16.09344 0 0
4:53 pm 16:53 Sunny 104 40 9 -12.8 3 3 S 14 22 29.74 1007 10 16.09344 0 0
5:53 pm 17:53 Sunny 104 40 8 -13.3 3 3 S 15 24 29.71 1006 10 16.09344 0 0
6:53 pm 18:53 Sunny 102 38.9 11 -11.7 3 3 WSW 12 19 29.74 1007 10 16.09344 0 0
7:53 pm 19:53 Sunny 99 37.2 11 -11.7 4 4 W 9 15 29.74 1007 10 16.09344 0 0
8:53 pm 20:53 Clear 97 36.1 14 -10 5 5 W 10 17 29.74 1007 10 16.09344 0 0
9:53 pm 21:53 Clear 94 34.4 15 -9.4 5 5 NE 10 17 29.77 1008 10 16.09344 0 0
10:53 pm 22:53 Clear 91 32.8 17 -8.3 6 6 Calm 29.77 1008 10 16.09344 0 0
11:53 pm 23:53 Clear 86 30 18 -7.8 8 8 NE 3 6 29.77 1008 10 16.09344 0 0

Powered by AerisWeather